DW8248 Weather Reports


Display with metric or nautical units.
time (UTC)temp
F
wind
direction
speed
MPH
gust
MPH
rain 1hr
in
rain 24hr
in
rain mn
in
humidity
%
barometer
mb
20260904083244 85 148 6.0 9.0 0.00 0.00 0.00 83 1013.5
20260904082213 85 158 5.0 9.0 0.00 0.00 0.00 83 1013.4
20260904081225 85 159 5.0 10.0 0.00 0.00 0.00 82 1013.4
20260904080208 85 153 6.0 10.0 0.00 0.00 0.00 82 1013.3
20260904075154 85 150 7.0 10.0 0.00 0.00 0.00 82 1013.3
20260904073034 84 0 5.0 9.0 0.00 0.00 0.00 84 1013.3
20260904071958 84 137 6.0 9.0 0.00 0.00 0.00 85 1013.2
20260904070950 84 151 4.0 9.0 0.00 0.00 0.00 85 1013.3
20260904065939 84 163 4.0 8.0 0.00 0.00 0.00 86 1013.4
20260904064939 84 0 4.0 9.0 0.00 0.00 0.00 86 1013.6
20260904063938 84 0 5.0 9.0 0.00 0.00 0.00 86 1013.6
20260904062920 84 140 3.0 8.0 0.00 0.00 0.00 87 1013.6
20260904061921 84 152 3.0 8.0 0.00 0.00 0.00 86 1013.8
20260904060914 83 0 2.0 4.0 0.00 0.00 0.00 86 1013.9
20260904055908 83 142 1.0 3.0 0.00 0.00 0.00 86 1014.0
20260904054921 83 0 2.0 3.0 0.00 0.00 0.00 86 1014.0
20260904052755 83 119 1.0 2.0 0.00 0.00 0.00 85 1014.4
20260904051800 83 130 0.0 2.0 0.00 0.00 0.00 85 1014.4
20260904050745 83 159 0.0 0.0 0.00 0.00 0.00 85 1014.5
20260904043437 83 139 1.0 4.0 0.00 0.00 0.00 83 1014.4
20260904042410 83 0 2.0 7.0 0.00 0.00 0.00 83 1014.5
20260904041425 83 0 4.0 8.0 0.00 0.00 0.00 82 1014.5
20260904040415 83 157 5.0 10.0 0.00 0.00 0.00 81 1014.5
20260904033126 84 136 5.0 11.0 0.00 0.00 0.00 82 1014.4
20260904032049 83 0 5.0 11.0 0.00 0.00 0.00 82 1014.5
20260904031104 83 172 7.0 12.0 0.00 0.00 0.00 82 1014.6
20260904030028 83 0 7.0 12.0 0.00 0.00 0.00 82 1014.6
20260904025025 83 107 5.0 10.0 0.00 0.00 0.00 81 1014.7
20260904024006 83 159 4.0 10.0 0.00 0.00 0.00 83 1014.6
20260904023000 83 0 4.0 9.0 0.00 0.00 0.00 83 1014.5
20260904021953 83 125 4.0 9.0 0.00 0.00 0.00 83 1014.4
20260904020943 83 157 3.0 9.0 0.00 0.00 0.00 83 1014.5
20260904014739 84 146 6.0 10.0 0.00 0.00 0.00 84 1014.5
20260904013740 84 117 4.0 8.0 0.00 0.00 0.00 84 1014.5
20260904012723 84 149 3.0 9.0 0.00 0.00 0.00 84 1014.4
20260904010645 84 160 4.0 8.0 0.00 0.00 0.00 83 1014.2
20260904005659 84 139 4.0 8.0 0.00 0.00 0.00 83 1014.2
20260904004657 84 123 5.0 9.0 0.00 0.00 0.00 83 1014.2
20260904003651 84 131 5.0 10.0 0.00 0.00 0.00 83 1014.3
20260904002700 84 142 5.0 10.0 0.00 0.00 0.00 83 1014.2
20260904001627 84 127 2.0 7.0 0.00 0.00 0.00 84 1014.3
20260904000612 84 138 2.0 7.0 0.00 0.00 0.00 84 1014.3
20260903235617 84 0 3.0 7.0 0.00 0.00 0.00 83 1014.0
20260903234636 84 101 2.0 6.0 0.00 0.00 0.00 83 1013.9
20260903233619 84 167 3.0 7.0 0.00 0.00 0.00 82 1013.8
20260903232639 84 143 4.0 9.0 0.00 0.00 0.00 82 1013.8
20260903231627 84 148 4.0 9.0 0.00 0.00 0.00 82 1013.8
20260903230632 84 110 4.0 11.0 0.00 0.00 0.00 82 1013.8
20260903225558 84 134 4.0 11.0 0.00 0.00 0.00 82 1013.8
20260903224545 84 120 5.0 12.0 0.00 0.00 0.00 82 1013.6
20260903223532 84 148 6.0 12.0 0.00 0.00 0.00 81 1013.6
20260903222511 84 123 5.0 10.0 0.00 0.00 0.00 82 1013.5
20260903221500 85 145 5.0 11.0 0.00 0.00 0.00 81 1013.5
20260903220442 85 136 5.0 11.0 0.00 0.00 0.00 79 1013.4
20260903215432 85 132 6.0 10.0 0.00 0.00 0.00 80 1013.1
20260903214400 85 112 4.0 10.0 0.00 0.00 0.00 80 1013.4
20260903213330 85 123 5.0 12.0 0.00 0.00 0.00 79 1013.5
20260903212322 84 129 6.0 12.0 0.00 0.00 0.00 79 1013.5
20260903211249 84 146 5.0 11.0 0.00 0.00 0.00 81 1013.2
20260903204034 84 78 5.0 13.0 0.00 0.00 0.00 82 1012.5
20260903203007 84 106 7.0 13.0 0.00 0.00 0.00 81 1012.9
20260903201938 84 105 6.0 11.0 0.00 0.00 0.00 81 1013.1
20260903195839 84 105 5.0 12.0 0.00 0.00 0.00 83 1013.2
20260903194839 84 98 4.0 13.0 0.00 0.00 0.00 82 1013.4
20260903193808 84 99 6.0 13.0 0.00 0.00 0.00 82 1013.5
20260903192750 84 0 4.0 11.0 0.00 0.00 0.00 82 1013.6
20260903191753 84 153 4.0 12.0 0.00 0.00 0.00 83 1013.7
20260903190735 84 115 5.0 12.0 0.00 0.00 0.00 82 1013.7
20260903185738 84 53 5.0 11.0 0.00 0.00 0.00 82 1013.7
20260903182514 85 105 6.0 14.0 0.00 0.00 0.00 82 1014.3
20260903181518 85 82 5.0 12.0 0.00 0.00 0.00 82 1014.1
20260903180520 85 115 6.0 13.0 0.00 0.00 0.00 82 1014.2
20260903175504 84 102 7.0 13.0 0.00 0.00 0.00 82 1014.5
20260903174515 84 103 6.0 13.0 0.00 0.00 0.00 83 1014.5
20260903173513 84 86 6.0 11.0 0.00 0.00 0.00 83 1014.5
20260903172456 84 63 6.0 13.0 0.00 0.00 0.00 82 1014.3
20260903171420 84 90 7.0 13.0 0.00 0.00 0.00 82 1014.2
20260903170344 84 105 5.0 10.0 0.00 0.00 0.00 82 1014.5
20260903164230 84 25 4.0 9.0 0.00 0.00 0.00 81 1014.7
20260903163228 84 44 4.0 11.0 0.00 0.00 0.00 81 1014.9
20260903160002 84 94 3.0 8.0 0.00 0.00 0.00 80 1015.4
20260903154955 84 64 3.0 7.0 0.00 0.00 0.00 80 1015.4
20260903154002 84 65 2.0 5.0 0.00 0.00 0.00 80 1015.4
20260903153004 84 48 2.0 5.0 0.00 0.00 0.00 80 1015.4
20260903150859 84 51 2.0 6.0 0.00 0.00 0.00 80 1015.5
20260903145912 84 74 2.0 5.0 0.00 0.00 0.00 80 1015.4
20260903144855 84 40 2.0 5.0 0.00 0.00 0.00 79 1015.4
20260903143847 85 36 1.0 4.0 0.00 0.00 0.00 78 1015.3
20260903142853 84 55 0.0 0.0 0.00 0.00 0.00 75 1015.1
20260903141841 84 55 0.0 0.0 0.00 0.00 0.00 76 1014.9
20260903140831 84 150 0.0 0.0 0.00 0.00 0.00 77 1014.9
20260903135829 83 159 1.0 3.0 0.00 0.00 0.00 78 1014.8
20260903134811 83 201 2.0 4.0 0.00 0.00 0.00 79 1014.7
20260903133738 83 205 1.0 4.0 0.00 0.00 0.00 81 1014.7
20260903132752 82 245 0.0 0.0 0.00 0.00 0.00 84 1014.6
20260903131809 82 241 0.0 0.0 0.00 0.00 0.00 84 1014.7
20260903125710 82 236 2.0 4.0 0.00 0.00 0.00 86 1014.2
20260903124639 82 214 3.0 4.0 0.00 0.00 0.00 86 1014.3
20260903123639 81 194 3.0 4.0 0.00 0.00 0.00 86 1014.5
20260903120330 81 177 4.0 8.0 0.00 0.00 0.00 87 1014.3
20260903115318 81 202 6.0 8.0 0.00 0.00 0.00 87 1014.3
20260903114327 82 213 4.0 7.0 0.00 0.00 0.00 87 1013.9
20260903112217 82 215 1.0 4.0 0.00 0.00 0.00 88 1013.9
20260903111141 81 217 3.0 4.0 0.00 0.00 0.00 88 1013.4
20260903110127 81 232 2.0 5.0 0.00 0.00 0.00 88 1013.3
20260903103958 81 219 4.0 6.0 0.00 0.00 0.00 87 1012.9
20260903102941 81 225 4.0 6.0 0.00 0.00 0.00 87 1013.0
20260903101930 82 223 4.0 6.0 0.00 0.00 0.00 87 1013.0
20260903100854 82 221 4.0 7.0 0.00 0.00 0.00 87 1012.8
20260903095833 82 215 6.0 8.0 0.00 0.00 0.00 87 1012.9
20260903094819 82 214 7.0 12.0 0.00 0.00 0.00 86 1012.8
20260903092614 83 185 3.0 9.0 0.00 0.00 0.00 85 1012.8
20260903091559 83 143 2.0 4.0 0.00 0.00 0.00 84 1012.9
20260903085357 83 118 2.0 5.0 0.00 0.40 0.00 85 1012.5
20260903084401 83 160 2.0 5.0 0.00 0.51 0.00 85 1012.5